QPF
0.00 0.00 0.00 0.00 0.03 0.10 0.03 0.08 0.07 0.01 0.00 0.00 0.00 0.00 0.00 0.00 0.00 0.01 0.00 0.00 0.00 0.00 0.00 0.00 0.00 0.00 0.00 0.00 0.08 0.15 0.00 0.00 0.00 0.01 0.01 0.00 0.01 0.03 0.01 0.00 0.03 0.02 0.02 0.02 0.00 0.00 0.00 0.00 0.00
0.00 0.00 0.00 0.04 0.08 0.16 0.03 0.08 0.13 0.02 0.00 0.00 0.00 0.00 0.00 0.00 0.00 0.00 0.00 0.00 0.00 0.00 0.00 0.00 0.00 0.01 0.03 0.01 0.09 0.06 0.02 0.00 0.00 0.01 0.02 0.02 0.01 0.06 0.03 0.02 0.03 0.02 0.05 0.01 0.00 0.00 0.00 0.02 0.00
0.00 0.00 0.03 0.09 0.14 0.07 0.16 0.16 0.12 0.00 0.00 0.00 0.00 0.00 0.00 0.00 0.00 0.00 0.00 0.00 0.00 0.01 0.00 0.00 0.00 0.00 0.02 0.02 0.00 0.01 0.01 0.00 0.01 0.00 0.02 0.03 0.00 0.00 0.02 0.02 0.02 0.03 0.04 0.04 0.02 0.03 0.01 0.00 0.00
0.00 0.01 0.06 0.31 0.75 0.08 0.12 0.12 0.01 0.00 0.00 0.00 0.00 0.00 0.00 0.00 0.00 0.00 0.00 0.00 0.01 0.02 0.00 0.00 0.00 0.00 0.02 0.02 0.00 0.02 0.01 0.01 0.02 0.01 0.02 0.01 0.01 0.00 0.01 0.02 0.02 0.02 0.00 0.01 0.03 0.11 0.02 0.00 0.00
0.00 0.03 0.28 0.47 0.36 0.20 0.12 0.04 0.00 0.01 0.00 0.01 0.00 0.00 0.00 0.00 0.00 0.00 0.00 0.01 0.00 0.00 0.00 0.00 0.04 0.01 0.03 0.01 0.01 0.04 0.02 0.03 0.03 0.03 0.04 0.00 0.00 0.00 0.00 0.00 0.00 0.00 0.05 0.02 0.00 0.01 0.03 0.00 0.00
0.02 0.15 0.28 0.08 0.02 0.12 0.05 0.00 0.00 0.00 0.00 0.00 0.00 0.00 0.00 0.00 0.00 0.00 0.00 0.00 0.00 0.00 0.00 0.00 0.04 0.04 0.02 0.01 0.00 0.00 0.00 0.00 0.01 0.00 0.00 0.00 0.00 0.00 0.00 0.00 0.00 0.03 0.09 0.07 0.00 0.00 0.00 0.00 0.00
0.02 0.23 0.23 0.06 0.01 0.08 0.10 0.03 0.04 0.00 0.01 0.01 0.01 0.00 0.00 0.00 0.00 0.00 0.00 0.02 0.01 0.00 0.00 0.00 0.00 0.02 0.01 0.01 0.00 0.00 0.00 0.00 0.00 0.00 0.00 0.00 0.00 0.00 0.00 0.01 0.01 0.03 0.05 0.02 0.00 0.00 0.00 0.00 0.00
0.04 0.24 0.26 0.09 0.05 0.07 0.07 0.02 0.03 0.02 0.02 0.02 0.01 0.00 0.00 0.00 0.00 0.00 0.00 0.03 0.02 0.00 0.00 0.00 0.00 0.00 0.01 0.00 0.00 0.00 0.00 0.00 0.00 0.00 0.00 0.04 0.00 0.00 0.01 0.02 0.00 0.01 0.00 0.00 0.00 0.00 0.00 0.00 0.00
0.08 0.29 0.25 0.20 0.04 0.02 0.01 0.01 0.05 0.03 0.00 0.03 0.01 0.00 0.00 0.00 0.00 0.00 0.01 0.00 0.01 0.00 0.00 0.01 0.00 0.03 0.02 0.00 0.00 0.00 0.00 0.04 0.00 0.00 0.03 0.09 0.02 0.00 0.02 0.02 0.01 0.03 0.00 0.00 0.01 0.04 0.01 0.00 0.00
0.21 0.29 0.17 0.05 0.01 0.00 0.00 0.00 0.01 0.00 0.00 0.01 0.01 0.00 0.00 0.00 0.00 0.00 0.00 0.00 0.00 0.00 0.00 0.07 0.00 0.00 0.00 0.00 0.00 0.00 0.06 0.04 0.01 0.03 0.04 0.05 0.01 0.00 0.00 0.00 0.00 0.00 0.00 0.01 0.02 0.07 0.19 0.08 0.00
0.04 0.07 0.02 0.03 0.02 0.00 0.00 0.00 0.00 0.00 0.07 0.00 0.00 0.00 0.00 0.00 0.00 0.00 0.00 0.00 0.00 0.00 0.00 0.00 0.00 0.01 0.00 0.00 0.00 0.02 0.02 0.00 0.00 0.00 0.00 0.00 0.00 0.00 0.00 0.00 0.00 0.01 0.02 0.03 0.02 0.01 0.00 0.01 0.00
0.12 0.00 0.01 0.01 0.00 0.00 0.00 0.00 0.00 0.04 0.13 0.02 0.00 0.00 0.00 0.00 0.00 0.00 0.00 0.00 0.00 0.00 0.00 0.00 0.00 0.08 0.02 0.00 0.00 0.00 0.00 0.00 0.00 0.00 0.00 0.01 0.00 0.00 0.00 0.02 0.07 0.04 0.04 0.27 0.09 0.01 0.00 0.00 0.00
0.04 0.01 0.00 0.01 0.02 0.01 0.00 0.00 0.00 0.08 0.33 0.02 0.00 0.00 0.00 0.00 0.00 0.00 0.00 0.00 0.00 0.00 0.00 0.00 0.00 0.01 0.00 0.00 0.00 0.00 0.00 0.00 0.00 0.00 0.00 0.00 0.00 0.01 0.01 0.06 0.05 0.05 0.00 0.06 0.07 0.10 0.00 0.00 0.00
0.01 0.01 0.01 0.01 0.01 0.00 0.01 0.06 0.02 0.05 0.14 0.02 0.00 0.00 0.00 0.00 0.00 0.00 0.00 0.00 0.00 0.00 0.00 0.00 0.00 0.00 0.00 0.00 0.00 0.00 0.00 0.00 0.00 0.00 0.00 0.00 0.00 0.01 0.10 0.08 0.09 0.03 0.00 0.00 0.04 0.13 0.00 0.00 0.00
0.01 0.02 0.00 0.00 0.00 0.00 0.03 0.14 0.04 0.00 0.01 0.01 0.00 0.00 0.00 0.00 0.00 0.00 0.00 0.00 0.00 0.00 0.00 0.00 0.00 0.00 0.00 0.00 0.00 0.00 0.00 0.00 0.00 0.00 0.00 0.00 0.00 0.02 0.13 0.11 0.17 0.01 0.00 0.01 0.05 0.02 0.00 0.00 0.00
0.00 0.01 0.00 0.00 0.00 0.00 0.05 0.33 0.10 0.00 0.00 0.00 0.00 0.00 0.00 0.00 0.00 0.00 0.00 0.00 0.00 0.00 0.00 0.00 0.00 0.00 0.00 0.00 0.01 0.01 0.11 0.06 0.00 0.00 0.00 0.00 0.00 0.00 0.01 0.02 0.00 0.01 0.06 0.02 0.07 0.00 0.00 0.00 0.00
0.00 0.00 0.00 0.00 0.00 0.00 0.04 0.34 0.34 0.03 0.00 0.00 0.00 0.00 0.00 0.00 0.00 0.00 0.00 0.00 0.00 0.00 0.00 0.00 0.00 0.00 0.00 0.00 0.00 0.00 0.01 0.01 0.00 0.00 0.00 0.00 0.00 0.00 0.01 0.01 0.00 0.01 0.06 0.00 0.00 0.00 0.00 0.00 0.00
0.00 0.00 0.00 0.00 0.00 0.01 0.05 0.04 0.04 0.01 0.00 0.00 0.00 0.00 0.00 0.00 0.00 0.00 0.00 0.00 0.00 0.00 0.00 0.00 0.00 0.00 0.00 0.00 0.00 0.00 0.01 0.01 0.00 0.00 0.00 0.01 0.01 0.00 0.00 0.01 0.00 0.02 0.01 0.00 0.00 0.00 0.01 0.00 0.00
0.00 0.00 0.01 0.02 0.02 0.00 0.02 0.04 0.01 0.00 0.02 0.01 0.00 0.00 0.00 0.00 0.00 0.00 0.00 0.00 0.00 0.00 0.00 0.00 0.00 0.00 0.00 0.00 0.00 0.00 0.00 0.00 0.00 0.00 0.00 0.02 0.01 0.00 0.01 0.02 0.00 0.01 0.01 0.00 0.00 0.01 0.00 0.00 0.00
0.00 0.00 0.00 0.01 0.09 0.13 0.06 0.20 0.28 0.00 0.01 0.02 0.02 0.00 0.00 0.00 0.00 0.00 0.00 0.00 0.00 0.00 0.00 0.00 0.00 0.00 0.00 0.00 0.00 0.00 0.00 0.00 0.00 0.00 0.00 0.00 0.00 0.00 0.01 0.01 0.02 0.03 0.05 0.00 0.00 0.01 0.00 0.00 0.00
0.00 0.00 0.00 0.00 0.02 0.29 0.04 0.11 0.51 0.04 0.03 0.09 0.08 0.03 0.00 0.00 0.00 0.00 0.00 0.00 0.00 0.00 0.00 0.00 0.00 0.00 0.00 0.00 0.00 0.00 0.00 0.00 0.00 0.00 0.00 0.00 0.00 0.00 0.02 0.01 0.02 0.04 0.02 0.01 0.01 0.00 0.00 0.00 0.00
0.00 0.00 0.00 0.00 0.00 0.00 0.00 0.06 0.13 0.03 0.03 0.41 0.16 0.09 0.02 0.00 0.00 0.00 0.00 0.00 0.00 0.00 0.00 0.00 0.00 0.00 0.00 0.00 0.00 0.00 0.00 0.00 0.00 0.00 0.00 0.01 0.00 0.00 0.00 0.00 0.03 0.04 0.03 0.07 0.01 0.00 0.00 0.00 0.00
0.00 0.00 0.00 0.00 0.00 0.00 0.00 0.01 0.08 0.14 0.09 0.02 0.10 0.64 0.10 0.00 0.00 0.00 0.00 0.00 0.00 0.00 0.00 0.00 0.00 0.00 0.00 0.00 0.03 0.02 0.00 0.05 0.03 0.03 0.04 0.07 0.03 0.00 0.00 0.00 0.01 0.03 0.06 0.04 0.01 0.00 0.00 0.00 0.00
0.00 0.00 0.00 0.00 0.00 0.00 0.00 0.00 0.05 0.36 0.21 0.08 0.02 0.60 0.97 0.45 0.02 0.00 0.00 0.00 0.00 0.00 0.00 0.00 0.00 0.00 0.00 0.00 0.02 0.01 0.03 0.04 0.05 0.05 0.04 0.03 0.05 0.00 0.00 0.00 0.01 0.02 0.06 0.07 0.01 0.00 0.00 0.00 0.00
0.00 0.00 0.00 0.00 0.00 0.00 0.00 0.00 0.02 0.41 0.46 0.11 0.01 0.26 0.64 0.73 0.20 0.01 0.01 0.00 0.00 0.00 0.00 0.00 0.00 0.00 0.00 0.00 0.00 0.00 0.02 0.03 0.04 0.03 0.03 0.05 0.15 0.01 0.02 0.01 0.00 0.01 0.03 0.03 0.02 0.01 0.00 0.00 0.00
0.00 0.00 0.00 0.00 0.00 0.00 0.00 0.00 0.00 0.01 0.05 0.03 0.00 0.01 0.05 0.07 0.30 0.04 0.01 0.00 0.00 0.00 0.00 0.00 0.00 0.00 0.00 0.00 0.00 0.00 0.00 0.00 0.00 0.00 0.00 0.00 0.04 0.05 0.14 0.05 0.00 0.01 0.02 0.01 0.01 0.01 0.01 0.01 0.00
0.00 0.00 0.00 0.00 0.00 0.00 0.00 0.00 0.00 0.00 0.01 0.01 0.00 0.03 0.02 0.02 0.01 0.02 0.03 0.00 0.00 0.00 0.00 0.00 0.00 0.00 0.00 0.00 0.00 0.00 0.00 0.00 0.00 0.00 0.00 0.00 0.00 0.07 0.18 0.12 0.01 0.00 0.00 0.02 0.05 0.02 0.02 0.01 0.01
0.00 0.00 0.00 0.00 0.00 0.00 0.00 0.00 0.00 0.00 0.00 0.00 0.00 0.01 0.01 0.03 0.26 0.20 0.13 0.11 0.02 0.00 0.00 0.00 0.00 0.00 0.00 0.00 0.00 0.00 0.00 0.00 0.00 0.00 0.00 0.00 0.01 0.03 0.19 0.28 0.04 0.01 0.01 0.01 0.01 0.01 0.03 0.02 0.01
0.00 0.00 0.00 0.00 0.00 0.00 0.00 0.06 0.00 0.00 0.00 0.00 0.00 0.00 0.01 0.03 0.13 0.75 0.91 0.53 0.09 0.04 0.02 0.00 0.00 0.00 0.00 0.00 0.00 0.00 0.00 0.00 0.00 0.00 0.00 0.00 0.00 0.03 0.06 0.28 0.04 0.02 0.01 0.02 0.03 0.03 0.03 0.06 0.02
0.00 0.00 0.00 0.00 0.00 0.00 0.01 0.09 0.00 0.00 0.00 0.00 0.00 0.00 0.00 0.01 0.05 0.16 0.66 1.38 0.54 0.14 0.12 0.06 0.05 0.00 0.00 0.00 0.00 0.00 0.00 0.00 0.00 0.00 0.00 0.00 0.00 0.00 0.01 0.01 0.03 0.04 0.02 0.04 0.07 0.01 0.01 0.05 0.03
MSLP
1010.13 1009.89 1009.67 1009.31 1009.84 1009.85 1009.21 1008.29 1006.52 1004.60 1003.32 1002.93 1003.11 1004.06 1005.66 1006.32 1006.64 1009.78 1011.30 1012.31 1013.28 1014.37 1015.37 1015.82 1016.14 1016.46 1016.82 1017.02 1017.19 1017.33 1017.43 1017.50 1017.47 1017.44 1017.41 1017.38 1017.49 1017.65 1017.71 1017.82 1017.98 1017.92 1017.90 1017.91 1018.07 1018.25 1018.36 1018.47 1018.54
1009.13 1009.19 1008.65 1008.91 1009.50 1009.29 1009.13 1008.05 1006.54 1004.59 1003.13 1003.51 1004.30 1005.19 1006.00 1007.41 1007.92 1009.79 1011.22 1012.22 1012.98 1014.21 1015.05 1015.95 1016.52 1016.80 1017.05 1017.24 1017.42 1017.49 1017.62 1017.65 1017.61 1017.66 1017.64 1017.73 1017.89 1018.02 1018.00 1018.16 1018.20 1018.33 1018.30 1018.40 1018.47 1018.62 1018.64 1018.74 1018.74
1009.51 1008.29 1009.18 1009.24 1009.10 1009.22 1008.57 1007.67 1006.05 1004.47 1004.02 1004.12 1005.63 1006.37 1006.47 1008.00 1008.77 1009.55 1011.25 1011.90 1012.80 1013.84 1015.04 1016.31 1016.76 1017.03 1017.26 1017.48 1017.59 1017.72 1017.77 1017.84 1017.86 1017.92 1018.00 1018.03 1018.17 1018.22 1018.37 1018.43 1018.55 1018.63 1018.69 1018.81 1018.79 1018.77 1018.82 1018.93 1018.98
1008.32 1008.69 1009.11 1009.48 1008.52 1009.49 1008.72 1007.30 1005.62 1004.63 1004.49 1005.44 1006.04 1006.90 1007.64 1008.05 1008.79 1009.75 1010.87 1012.09 1013.15 1014.22 1015.45 1016.54 1016.93 1017.16 1017.43 1017.65 1017.83 1017.95 1018.01 1018.09 1018.12 1018.30 1018.25 1018.24 1018.38 1018.51 1018.58 1018.71 1018.81 1018.82 1018.86 1018.87 1018.88 1019.00 1019.07 1019.28 1019.34
1008.30 1008.90 1008.67 1009.04 1010.00 1009.53 1008.37 1006.67 1005.81 1005.32 1005.53 1006.05 1006.51 1007.41 1007.99 1008.66 1009.43 1010.00 1011.13 1012.25 1013.33 1014.72 1015.82 1016.55 1017.03 1017.34 1017.53 1017.76 1017.98 1018.13 1018.27 1018.42 1018.51 1018.60 1018.55 1018.58 1018.67 1018.78 1018.86 1018.96 1019.02 1019.02 1018.93 1018.95 1019.07 1019.24 1019.44 1019.61 1019.65
1008.81 1008.98 1008.67 1008.78 1009.61 1009.30 1007.81 1007.15 1006.53 1006.74 1006.41 1006.91 1007.23 1007.77 1008.56 1009.32 1009.73 1010.44 1011.67 1012.64 1013.24 1014.27 1015.55 1016.64 1017.28 1017.57 1017.66 1017.88 1018.07 1018.29 1018.46 1018.62 1018.67 1018.64 1018.73 1018.81 1018.90 1019.00 1019.02 1019.15 1019.29 1019.30 1019.20 1019.37 1019.43 1019.52 1019.65 1019.81 1019.76
1008.64 1008.57 1008.00 1008.06 1008.81 1008.76 1008.26 1008.01 1007.26 1007.08 1007.01 1007.42 1007.83 1008.38 1008.96 1009.47 1009.90 1010.87 1011.65 1012.74 1013.04 1013.85 1015.20 1016.40 1017.06 1017.62 1017.88 1018.06 1018.25 1018.47 1018.60 1018.70 1018.74 1018.77 1018.79 1018.90 1019.04 1019.19 1019.30 1019.36 1019.45 1019.47 1019.44 1019.54 1019.64 1019.80 1019.93 1019.93 1019.82
1007.41 1007.88 1007.34 1007.20 1007.75 1008.51 1008.44 1008.64 1008.45 1007.86 1007.58 1007.44 1007.65 1008.51 1008.66 1009.41 1009.92 1011.16 1012.17 1014.05 1013.48 1013.35 1014.37 1015.55 1016.66 1017.25 1017.66 1018.07 1018.46 1018.70 1018.78 1018.77 1018.82 1018.94 1018.96 1019.02 1019.10 1019.37 1019.55 1019.51 1019.49 1019.52 1019.64 1019.78 1019.99 1020.24 1020.25 1019.95 1019.76
1006.98 1007.54 1006.53 1006.16 1006.69 1008.15 1008.41 1008.92 1009.33 1008.32 1007.44 1007.52 1007.47 1008.19 1008.74 1009.36 1010.14 1011.72 1012.05 1013.81 1013.81 1013.70 1014.53 1015.27 1016.25 1017.16 1017.47 1017.99 1018.78 1019.04 1019.05 1018.87 1018.88 1018.96 1019.21 1019.34 1019.00 1019.30 1019.59 1019.63 1019.71 1019.69 1019.82 1020.12 1020.61 1020.61 1020.67 1020.76 1020.27
1007.16 1006.57 1005.67 1005.14 1005.88 1007.09 1008.16 1008.84 1009.33 1008.67 1007.86 1007.57 1007.61 1008.55 1009.25 1009.31 1010.65 1011.91 1012.48 1013.07 1013.10 1014.28 1015.66 1016.35 1016.27 1016.77 1017.08 1017.35 1018.34 1018.33 1018.76 1018.79 1018.72 1018.95 1019.21 1018.87 1018.77 1019.02 1019.44 1019.77 1019.88 1020.09 1020.22 1020.62 1020.68 1020.45 1020.04 1020.35 1020.21
1005.80 1005.41 1005.12 1005.36 1005.65 1006.90 1008.05 1009.12 1009.52 1008.99 1008.27 1007.92 1008.00 1008.70 1009.20 1009.40 1010.00 1011.18 1012.15 1012.67 1012.97 1014.41 1015.15 1015.89 1015.99 1016.64 1016.54 1017.06 1017.91 1018.79 1018.69 1018.70 1018.52 1018.49 1019.08 1019.01 1018.87 1019.14 1019.49 1019.96 1020.56 1020.92 1020.54 1020.63 1020.45 1020.49 1020.30 1020.08 1019.88
1005.45 1004.34 1004.22 1005.00 1005.67 1006.91 1008.00 1008.97 1009.53 1009.53 1008.84 1007.87 1008.59 1009.12 1009.29 1009.45 1009.67 1010.67 1011.55 1012.25 1013.36 1014.16 1014.67 1015.49 1016.51 1016.99 1016.78 1016.88 1017.56 1018.12 1018.37 1018.14 1018.21 1018.35 1018.55 1018.92 1019.13 1019.54 1019.71 1020.00 1020.60 1020.36 1020.87 1020.22 1020.05 1019.92 1019.59 1019.04 1018.82
1004.39 1003.85 1003.76 1004.70 1005.30 1006.44 1007.35 1008.41 1009.47 1010.08 1008.08 1008.34 1008.85 1009.40 1009.54 1009.43 1009.62 1010.00 1010.77 1011.82 1013.18 1014.18 1014.88 1015.34 1016.50 1017.09 1016.63 1016.90 1017.58 1017.78 1017.84 1017.89 1018.24 1018.51 1018.74 1018.90 1019.12 1019.63 1019.94 1019.67 1020.45 1020.77 1020.25 1020.11 1020.69 1020.28 1019.27 1019.57 1019.29
1003.51 1003.40 1003.59 1004.32 1004.95 1005.72 1006.43 1007.92 1008.79 1010.29 1009.80 1009.10 1009.22 1009.47 1009.54 1009.41 1009.57 1010.04 1010.81 1011.67 1012.71 1013.93 1014.94 1015.34 1016.21 1016.39 1016.72 1016.66 1016.76 1017.26 1017.82 1017.73 1018.00 1018.54 1018.94 1019.01 1019.37 1020.15 1021.33 1020.98 1020.78 1020.04 1019.73 1019.95 1019.67 1019.64 1019.37 1019.64 1019.53
1003.01 1003.42 1003.41 1003.50 1004.23 1005.05 1006.37 1007.66 1008.55 1009.01 1009.78 1009.53 1009.13 1009.25 1009.31 1009.37 1009.97 1010.27 1010.95 1011.95 1012.84 1013.58 1014.64 1015.31 1016.32 1016.59 1016.93 1016.93 1017.30 1017.86 1018.12 1018.35 1018.17 1018.59 1018.81 1018.97 1019.65 1020.18 1020.99 1021.01 1020.58 1020.30 1019.60 1019.73 1020.13 1019.80 1019.72 1019.94 1019.78
1002.39 1002.26 1002.00 1002.34 1003.18 1004.59 1006.05 1007.65 1008.77 1009.37 1009.04 1009.02 1009.08 1009.03 1009.15 1009.41 1010.05 1010.42 1011.13 1012.04 1013.06 1013.54 1014.66 1015.33 1015.79 1016.91 1017.25 1017.24 1017.80 1018.15 1018.31 1018.72 1018.44 1018.57 1018.93 1018.94 1019.21 1019.60 1020.12 1020.68 1020.00 1020.38 1020.12 1020.37 1020.62 1019.79 1020.07 1020.10 1020.07
1001.10 1000.98 1001.23 1001.58 1002.26 1003.83 1005.26 1007.63 1009.01 1008.94 1008.96 1008.85 1009.09 1008.99 1008.98 1009.44 1010.02 1010.53 1011.22 1012.15 1013.13 1013.78 1014.71 1015.23 1015.90 1016.66 1017.42 1017.55 1017.89 1018.64 1018.95 1018.90 1018.51 1018.57 1018.88 1019.10 1019.28 1019.38 1019.70 1020.11 1019.95 1020.42 1020.78 1020.22 1020.16 1020.22 1020.11 1020.22 1020.30
1000.16 1000.18 1000.85 1000.98 1001.86 1003.51 1005.48 1007.20 1008.26 1008.60 1008.64 1008.75 1009.07 1009.09 1008.94 1009.45 1010.08 1010.84 1011.43 1012.19 1013.22 1014.03 1014.92 1015.40 1016.04 1016.70 1017.32 1017.46 1017.99 1018.16 1018.95 1018.94 1018.68 1018.80 1018.86 1018.99 1019.30 1019.34 1019.55 1019.90 1019.85 1020.46 1020.33 1020.58 1020.36 1020.29 1020.19 1020.46 1020.05
999.33 999.14 999.97 1002.28 1003.36 1003.25 1005.20 1007.50 1008.26 1008.83 1008.82 1008.96 1009.38 1009.49 1009.20 1009.43 1010.07 1011.03 1011.55 1012.27 1013.25 1014.18 1015.01 1015.44 1016.09 1016.84 1017.44 1017.54 1017.95 1018.14 1018.22 1018.59 1018.92 1018.84 1018.81 1019.31 1019.40 1019.19 1019.40 1019.72 1020.02 1020.45 1020.61 1020.18 1020.53 1020.73 1020.61 1020.27 1020.51
999.31 999.18 1000.36 1002.45 1003.35 1005.56 1005.23 1007.68 1008.89 1009.08 1009.45 1009.79 1009.79 1009.83 1009.52 1009.49 1010.20 1011.01 1011.52 1012.12 1013.08 1014.17 1014.97 1015.57 1016.16 1016.79 1017.39 1017.40 1017.35 1017.45 1017.70 1018.10 1018.38 1018.66 1018.78 1018.92 1019.14 1019.27 1019.48 1019.75 1020.20 1020.56 1020.61 1020.46 1020.37 1020.59 1020.67 1020.17 1020.21
998.97 998.55 999.92 1001.38 1004.08 1005.32 1007.57 1008.07 1009.98 1009.85 1010.13 1011.10 1010.89 1011.03 1009.75 1009.63 1010.39 1010.97 1011.41 1011.76 1012.68 1013.87 1014.79 1015.52 1016.17 1016.76 1017.22 1017.19 1017.33 1017.24 1017.53 1017.93 1018.69 1018.85 1018.75 1018.67 1018.94 1019.10 1019.62 1019.65 1019.95 1020.24 1020.50 1020.91 1020.62 1020.49 1020.54 1020.54 1020.33
998.12 998.28 1000.29 1000.54 1002.30 1003.94 1006.12 1006.36 1008.77 1009.10 1009.84 1011.51 1011.76 1011.47 1010.94 1010.07 1010.46 1011.01 1011.89 1011.64 1012.16 1013.42 1014.43 1015.29 1015.95 1016.60 1017.01 1017.20 1017.22 1017.29 1017.64 1018.00 1018.07 1018.21 1018.64 1018.78 1018.72 1018.87 1019.12 1019.47 1019.98 1020.91 1020.90 1020.87 1020.71 1020.10 1020.33 1020.52 1020.41
997.93 997.75 999.44 999.10 999.82 1000.42 1001.68 1003.57 1007.25 1008.77 1010.67 1011.27 1011.60 1011.82 1011.94 1011.73 1010.86 1010.93 1011.21 1011.53 1011.96 1012.96 1013.91 1015.00 1015.72 1016.40 1016.66 1016.89 1017.37 1017.48 1017.86 1018.32 1018.79 1018.36 1018.77 1018.93 1018.70 1018.87 1019.16 1019.39 1019.69 1019.97 1020.79 1020.76 1020.62 1020.27 1020.45 1020.83 1020.65
998.55 997.95 998.13 998.85 999.11 999.76 1000.67 1002.64 1006.91 1008.70 1010.00 1010.33 1011.32 1011.57 1012.31 1012.53 1011.00 1011.45 1011.30 1011.44 1011.86 1012.64 1013.37 1014.55 1015.43 1016.08 1016.39 1016.80 1017.38 1017.51 1017.92 1018.39 1018.83 1019.09 1018.51 1019.20 1018.98 1019.13 1019.15 1019.26 1019.66 1019.85 1020.51 1020.68 1020.15 1020.04 1020.36 1020.61 1020.75
998.58 998.25 997.77 998.24 998.40 998.72 999.51 1001.06 1005.65 1007.91 1008.64 1009.64 1010.23 1011.70 1013.16 1011.51 1011.74 1011.60 1011.39 1011.23 1011.69 1012.17 1013.00 1014.16 1015.07 1015.74 1016.11 1016.60 1016.99 1017.28 1017.59 1018.12 1018.29 1018.68 1018.86 1019.13 1018.65 1019.35 1019.53 1019.35 1019.68 1019.90 1020.15 1020.32 1020.23 1020.25 1020.44 1020.52 1020.74
998.25 998.04 997.12 997.50 998.04 998.68 999.58 1001.20 1005.77 1007.57 1008.05 1009.83 1009.44 1010.79 1011.78 1011.72 1012.04 1011.73 1010.92 1011.13 1011.47 1011.71 1012.60 1013.47 1014.63 1015.24 1015.78 1016.18 1016.54 1016.92 1017.17 1017.46 1017.65 1017.76 1018.01 1018.71 1019.18 1020.17 1019.45 1019.68 1019.65 1019.71 1020.08 1020.09 1020.12 1020.23 1020.40 1020.42 1020.66
998.30 997.94 997.53 997.39 997.88 998.65 1000.15 1003.65 1005.81 1007.23 1009.08 1009.96 1011.00 1011.42 1012.03 1012.51 1012.07 1011.65 1010.90 1011.28 1010.97 1011.59 1012.08 1012.91 1014.03 1014.72 1015.19 1015.66 1016.21 1016.56 1016.88 1017.06 1017.23 1017.35 1017.64 1018.08 1019.04 1019.77 1019.73 1020.68 1019.65 1019.53 1019.66 1020.07 1020.18 1020.29 1020.17 1020.42 1020.76
998.80 998.95 998.36 997.60 997.87 998.34 1000.30 1002.94 1004.29 1007.07 1009.59 1011.28 1012.46 1012.88 1013.33 1013.01 1012.20 1012.08 1012.61 1012.81 1010.69 1011.27 1011.57 1012.19 1013.27 1014.07 1014.52 1015.03 1015.52 1015.97 1016.34 1016.63 1016.92 1017.21 1017.43 1017.78 1018.67 1018.98 1019.47 1020.06 1020.33 1019.13 1019.38 1019.72 1019.93 1019.97 1020.09 1020.36 1020.54
999.59 999.28 998.45 998.21 998.28 998.65 1001.35 1004.11 1005.29 1007.76 1009.98 1011.89 1013.02 1013.38 1013.65 1013.79 1013.64 1013.26 1013.10 1013.54 1012.09 1012.38 1012.17 1011.96 1012.53 1013.26 1013.90 1014.31 1014.69 1015.08 1015.63 1016.07 1016.49 1016.91 1017.18 1017.55 1018.18 1018.92 1019.38 1019.20 1019.60 1019.25 1019.24 1019.43 1019.90 1019.94 1020.02 1020.25 1020.58
999.55 999.31 999.11 998.60 998.61 998.68 1002.34 1005.87 1007.54 1009.32 1011.20 1012.39 1013.68 1013.97 1014.25 1014.31 1014.61 1014.56 1014.67 1014.05 1015.18 1013.56 1014.28 1013.19 1013.21 1012.28 1012.84 1013.26 1013.71 1014.10 1014.63 1015.22 1015.75 1016.36 1016.89 1017.27 1017.53 1017.62 1017.91 1018.64 1018.70 1018.82 1019.34 1019.44 1019.77 1019.77 1019.62 1020.13 1020.34
Thickness
5799 5800 5803 5796 5761 5750 5756 5765 5799 5803 5814 5836 5836 5819 5800 5803 5794 5752 5790 5786 5778 5769 5760 5757 5756 5754 5751 5749 5748 5747 5746 5746 5746 5747 5748 5748 5747 5746 5745 5745 5744 5744 5744 5744 5741 5740 5740 5741 5741
5807 5806 5805 5786 5758 5738 5756 5772 5782 5807 5831 5834 5824 5814 5803 5784 5804 5791 5786 5789 5782 5772 5765 5758 5754 5752 5749 5748 5747 5745 5744 5744 5746 5746 5747 5746 5745 5744 5744 5743 5743 5741 5741 5740 5737 5737 5738 5740 5743
5806 5815 5777 5767 5763 5752 5755 5777 5794 5820 5830 5824 5806 5812 5807 5787 5801 5800 5797 5795 5786 5778 5768 5758 5754 5752 5748 5746 5745 5743 5744 5744 5745 5746 5746 5746 5745 5744 5743 5743 5743 5741 5740 5738 5736 5736 5739 5742 5743
5809 5796 5785 5754 5746 5763 5766 5788 5812 5819 5824 5819 5811 5792 5807 5817 5806 5808 5806 5796 5786 5778 5767 5758 5755 5752 5750 5747 5745 5743 5743 5744 5745 5744 5745 5746 5745 5743 5743 5742 5742 5742 5742 5742 5742 5741 5741 5741 5742
5808 5787 5758 5751 5747 5759 5770 5807 5815 5811 5809 5809 5810 5791 5793 5810 5814 5812 5805 5797 5786 5776 5766 5760 5756 5754 5752 5749 5746 5745 5744 5743 5743 5744 5744 5745 5745 5744 5743 5742 5742 5743 5744 5746 5745 5743 5742 5741 5741
5780 5783 5766 5760 5756 5761 5794 5805 5810 5802 5809 5804 5801 5795 5794 5812 5809 5809 5803 5795 5790 5783 5772 5763 5758 5755 5754 5752 5750 5747 5746 5745 5744 5745 5745 5745 5745 5744 5744 5743 5743 5744 5745 5745 5744 5744 5743 5742 5742
5781 5777 5777 5783 5770 5771 5785 5801 5802 5804 5804 5799 5807 5783 5797 5803 5812 5809 5805 5796 5795 5788 5778 5768 5763 5758 5756 5754 5752 5750 5748 5748 5747 5748 5749 5748 5747 5746 5746 5746 5746 5746 5746 5746 5745 5745 5744 5744 5744
5801 5789 5783 5791 5778 5766 5792 5793 5797 5800 5797 5818 5817 5782 5787 5804 5815 5808 5802 5786 5792 5795 5787 5777 5769 5765 5762 5757 5753 5751 5751 5751 5751 5751 5751 5751 5750 5749 5747 5748 5748 5748 5748 5747 5745 5742 5741 5745 5749
5814 5780 5783 5784 5789 5778 5797 5783 5791 5813 5810 5812 5817 5809 5812 5816 5815 5801 5799 5787 5789 5794 5790 5783 5775 5769 5766 5761 5754 5751 5752 5754 5755 5755 5753 5752 5756 5752 5750 5751 5750 5751 5749 5746 5740 5741 5742 5739 5746
5784 5787 5794 5818 5812 5795 5796 5792 5785 5795 5805 5806 5811 5814 5814 5817 5806 5793 5790 5788 5794 5790 5782 5779 5779 5775 5772 5769 5761 5764 5759 5758 5760 5758 5757 5760 5761 5759 5755 5754 5753 5750 5747 5742 5742 5751 5755 5748 5749
5798 5797 5815 5816 5820 5809 5793 5787 5790 5795 5793 5804 5802 5804 5810 5813 5811 5802 5796 5796 5797 5790 5789 5787 5784 5780 5779 5775 5767 5762 5762 5762 5764 5764 5760 5762 5763 5761 5757 5754 5747 5740 5748 5746 5744 5748 5752 5753 5757
5782 5823 5827 5820 5820 5803 5793 5788 5786 5790 5794 5819 5812 5811 5810 5809 5811 5806 5801 5800 5796 5792 5794 5792 5783 5780 5782 5780 5774 5771 5769 5770 5770 5768 5769 5766 5764 5759 5759 5757 5746 5750 5752 5762 5758 5754 5759 5765 5768
5798 5819 5831 5824 5822 5812 5810 5794 5784 5781 5782 5820 5813 5809 5807 5810 5813 5816 5814 5809 5800 5792 5793 5794 5785 5783 5786 5784 5780 5777 5776 5775 5773 5772 5769 5768 5766 5759 5762 5770 5754 5750 5760 5764 5751 5752 5770 5766 5768
5822 5827 5826 5825 5819 5818 5809 5796 5796 5782 5791 5807 5806 5804 5808 5810 5813 5814 5811 5808 5803 5798 5793 5795 5790 5788 5786 5788 5789 5784 5780 5778 5777 5774 5771 5772 5765 5757 5750 5755 5755 5762 5763 5765 5770 5773 5773 5769 5770
5825 5806 5819 5824 5824 5817 5816 5790 5786 5802 5797 5798 5805 5807 5809 5811 5811 5810 5810 5805 5804 5803 5798 5794 5789 5787 5786 5787 5785 5778 5778 5774 5778 5776 5775 5774 5766 5760 5758 5759 5763 5764 5771 5771 5774 5775 5771 5770 5772
5812 5819 5803 5827 5829 5824 5810 5768 5788 5797 5801 5799 5804 5807 5808 5809 5809 5812 5811 5808 5803 5804 5797 5796 5796 5787 5785 5786 5782 5781 5784 5779 5778 5779 5777 5777 5773 5767 5766 5766 5771 5763 5767 5769 5772 5775 5773 5774 5775
5817 5799 5807 5818 5838 5823 5812 5763 5777 5801 5800 5800 5800 5806 5808 5807 5808 5811 5811 5807 5803 5802 5798 5796 5794 5789 5785 5785 5781 5778 5777 5779 5782 5782 5781 5779 5777 5775 5772 5770 5772 5766 5766 5773 5775 5776 5777 5777 5777
5800 5810 5810 5816 5833 5823 5804 5788 5790 5801 5801 5799 5798 5802 5807 5805 5803 5807 5808 5807 5802 5800 5797 5796 5794 5790 5786 5786 5783 5782 5777 5780 5782 5782 5782 5781 5780 5779 5778 5774 5776 5773 5773 5772 5776 5777 5780 5779 5782
5831 5837 5813 5807 5810 5823 5808 5787 5788 5795 5798 5794 5794 5794 5803 5804 5808 5805 5806 5805 5800 5797 5794 5795 5791 5788 5785 5786 5783 5783 5783 5783 5782 5782 5783 5781 5781 5781 5781 5779 5777 5775 5775 5779 5778 5776 5777 5782 5783
5821 5821 5814 5805 5814 5777 5801 5782 5779 5789 5787 5788 5791 5792 5799 5804 5801 5800 5802 5803 5799 5794 5793 5792 5791 5789 5787 5789 5790 5791 5791 5790 5787 5785 5784 5784 5783 5782 5780 5781 5778 5775 5776 5779 5781 5779 5778 5784 5786
5815 5822 5815 5807 5787 5779 5755 5763 5745 5775 5783 5774 5776 5777 5798 5803 5796 5795 5797 5802 5801 5794 5792 5791 5790 5789 5788 5791 5791 5793 5794 5790 5783 5784 5786 5786 5784 5784 5782 5782 5781 5778 5776 5775 5780 5782 5782 5778 5787
5804 5840 5804 5811 5791 5764 5771 5758 5758 5774 5776 5767 5768 5774 5777 5800 5801 5796 5790 5799 5801 5796 5795 5793 5792 5790 5790 5791 5791 5790 5787 5784 5789 5790 5788 5786 5787 5787 5787 5784 5780 5773 5775 5775 5777 5784 5785 5785 5782
5811 5844 5814 5830 5818 5823 5820 5803 5770 5773 5757 5761 5762 5769 5771 5781 5797 5795 5797 5800 5802 5800 5796 5793 5792 5790 5793 5794 5791 5789 5786 5784 5784 5790 5786 5786 5788 5787 5787 5786 5782 5786 5779 5779 5781 5783 5784 5783 5785
5827 5825 5825 5821 5820 5790 5820 5809 5757 5759 5753 5760 5767 5772 5758 5764 5793 5791 5800 5800 5801 5802 5800 5795 5791 5789 5793 5793 5790 5789 5786 5783 5780 5781 5787 5783 5787 5787 5787 5787 5785 5787 5785 5783 5785 5785 5787 5787 5788
5808 5798 5780 5771 5779 5782 5836 5822 5764 5759 5772 5764 5775 5765 5739 5741 5771 5785 5794 5800 5802 5802 5801 5795 5792 5789 5792 5791 5791 5790 5789 5787 5787 5784 5784 5780 5785 5784 5787 5788 5786 5787 5787 5787 5787 5785 5786 5788 5787
5793 5798 5789 5754 5766 5789 5829 5803 5756 5766 5779 5780 5791 5778 5774 5775 5771 5780 5801 5802 5801 5804 5802 5800 5792 5791 5792 5793 5792 5792 5792 5792 5793 5794 5793 5788 5783 5777 5785 5784 5785 5785 5785 5787 5788 5788 5788 5789 5789
5788 5782 5823 5808 5815 5800 5800 5772 5773 5775 5771 5775 5774 5778 5773 5773 5781 5783 5797 5799 5806 5803 5804 5800 5793 5791 5793 5793 5793 5793 5793 5793 5794 5796 5798 5795 5786 5777 5783 5777 5787 5787 5787 5787 5789 5791 5792 5791 5789
5782 5805 5777 5799 5765 5777 5787 5770 5768 5771 5761 5757 5754 5754 5757 5766 5776 5781 5778 5778 5809 5806 5808 5807 5799 5793 5794 5795 5795 5795 5795 5796 5796 5797 5797 5796 5787 5785 5785 5784 5781 5795 5790 5789 5791 5795 5795 5792 5791
5765 5760 5787 5803 5804 5786 5756 5739 5776 5760 5762 5749 5746 5748 5752 5753 5761 5770 5764 5772 5790 5791 5796 5804 5802 5797 5794 5795 5796 5797 5796 5797 5797 5796 5798 5796 5788 5785 5785 5788 5787 5796 5794 5792 5793 5795 5795 5792 5789
5779 5774 5781 5767 5772 5806 5746 5718 5757 5754 5747 5743 5736 5740 5745 5750 5748 5756 5757 5763 5743 5755 5773 5782 5786 5801 5800 5801 5801 5800 5800 5800 5798 5796 5797 5796 5792 5790 5797 5795 5799 5797 5792 5793 5792 5795 5798 5792 5790